When you browse on this site, cookies collect data to enhance your experience and personalize the content and advertising you see.
Visit our Privacy Policy to learn more. By continuing to use the site, you agree to this use of cookies and data.

Stündliche Wetter Bischofshofen

Heute, 15 Juli, Mittwoch

Zeit Temperatur Niederschläge Wind Luftdruck Luftfeuchtigkeit
00:00 +13°C° 0.1 mm 1 m/S 696 mmHg 91%
01:00 +13°C° 0 mm 2 m/S 696 mmHg 92%
02:00 +13°C° 0 mm 2 m/S 696 mmHg 92%
03:00 +13°C° 0 mm 1 m/S 696 mmHg 93%
04:00 +12°C° 0 mm 1 m/S 695 mmHg 93%
05:00 +14°C° 0 mm 1 m/S 696 mmHg 91%
06:00 +15°C° 0 mm 1 m/S 696 mmHg 88%
07:00 +16°C° 0 mm 0 m/S 696 mmHg 86%
08:00 +17°C° 0.5 mm 0 m/S 696 mmHg 83%
09:00 +20°C° 0.5 mm 1 m/S 696 mmHg 80%
10:00 +21°C° 0.5 mm 1 m/S 696 mmHg 77%
11:00 +21°C° 1.1 mm 1 m/S 696 mmHg 79%
12:00 +21°C° 1.1 mm 1 m/S 696 mmHg 80%
13:00 +21°C° 1.1 mm 1 m/S 696 mmHg 81%
14:00 +21°C° 1.5 mm 1 m/S 696 mmHg 84%
15:00 +20°C° 1.5 mm 1 m/S 696 mmHg 87%
16:00 +20°C° 1.5 mm 1 m/S 696 mmHg 90%
17:00 +19°C° 1.8 mm 1 m/S 696 mmHg 93%
18:00 +18°C° 1.8 mm 1 m/S 696 mmHg 95%
19:00 +16°C° 1.8 mm 1 m/S 696 mmHg 98%
20:00 +15°C° 1.8 mm 1 m/S 697 mmHg 98%
21:00 +15°C° 1.8 mm 1 m/S 697 mmHg 98%
22:00 +14°C° 1.8 mm 0 m/S 697 mmHg 98%
23:00 +14°C° 0.4 mm 1 m/S 697 mmHg 98%

Morgen, 16 Juli, Donnerstag

Zeit Temperatur Niederschläge Wind Luftdruck Luftfeuchtigkeit
00:00 +14°C° 0.4 mm 1 m/S 697 mmHg 98%
01:00 +14°C° 0.4 mm 1 m/S 697 mmHg 98%
02:00 +13°C° 0 mm 1 m/S 697 mmHg 98%
03:00 +13°C° 0 mm 1 m/S 697 mmHg 98%
04:00 +12°C° 0 mm 1 m/S 697 mmHg 97%
05:00 +12°C° 0 mm 0 m/S 697 mmHg 96%
06:00 +13°C° 0 mm 0 m/S 698 mmHg 94%
07:00 +14°C° 0 mm 0 m/S 698 mmHg 93%
08:00 +15°C° 0.1 mm 1 m/S 698 mmHg 90%
09:00 +16°C° 0.1 mm 1 m/S 698 mmHg 86%
10:00 +16°C° 0.1 mm 1 m/S 698 mmHg 83%
11:00 +19°C° 0.2 mm 1 m/S 698 mmHg 77%
12:00 +19°C° 0.2 mm 2 m/S 698 mmHg 71%
13:00 +20°C° 0.2 mm 2 m/S 698 mmHg 65%
14:00 +20°C° 0.2 mm 2 m/S 698 mmHg 69%
15:00 +19°C° 0.2 mm 2 m/S 698 mmHg 74%
16:00 +18°C° 0.2 mm 2 m/S 698 mmHg 78%
17:00 +17°C° 0.3 mm 2 m/S 698 mmHg 84%
18:00 +16°C° 0.3 mm 1 m/S 698 mmHg 90%
19:00 +15°C° 0.3 mm 1 m/S 698 mmHg 96%
20:00 +15°C° 0.5 mm 1 m/S 698 mmHg 97%
21:00 +14°C° 0.5 mm 1 m/S 698 mmHg 98%
22:00 +14°C° 0.5 mm 1 m/S 698 mmHg 99%
23:00 +14°C° 0.7 mm 1 m/S 697 mmHg 99%

übermorgen, 17 Juli, Freitag

Zeit Temperatur Niederschläge Wind Luftdruck Luftfeuchtigkeit
00:00 +14°C° 0.7 mm 1 m/S 697 mmHg 99%
01:00 +13°C° 0.7 mm 0 m/S 697 mmHg 99%
02:00 +14°C° 1.4 mm 1 m/S 697 mmHg 99%
03:00 +14°C° 1.4 mm 1 m/S 697 mmHg 99%
04:00 +13°C° 1.4 mm 1 m/S 697 mmHg 99%
05:00 +13°C° 1.4 mm 1 m/S 697 mmHg 99%
06:00 +13°C° 1.4 mm 1 m/S 697 mmHg 99%
07:00 +13°C° 1.4 mm 1 m/S 697 mmHg 98%
08:00 +13°C° 0.5 mm 1 m/S 697 mmHg 96%
09:00 +14°C° 0.5 mm 1 m/S 697 mmHg 94%
10:00 +15°C° 0.5 mm 1 m/S 697 mmHg 92%
11:00 +16°C° 0.3 mm 2 m/S 698 mmHg 82%
12:00 +18°C° 0.3 mm 2 m/S 698 mmHg 72%
13:00 +20°C° 0.3 mm 2 m/S 698 mmHg 63%
14:00 +19°C° 0.4 mm 2 m/S 698 mmHg 65%
15:00 +19°C° 0.4 mm 2 m/S 697 mmHg 67%
16:00 +19°C° 0.4 mm 2 m/S 697 mmHg 69%
17:00 +18°C° 0.3 mm 2 m/S 697 mmHg 76%
18:00 +17°C° 0.3 mm 2 m/S 697 mmHg 83%
19:00 +16°C° 0.3 mm 1 m/S 697 mmHg 90%
20:00 +15°C° 0.2 mm 1 m/S 698 mmHg 92%
21:00 +14°C° 0.2 mm 1 m/S 698 mmHg 93%
22:00 +13°C° 0.2 mm 1 m/S 698 mmHg 95%
23:00 +13°C° 1.5 mm 1 m/S 698 mmHg 96%

18 Juli, Samstag

Zeit Temperatur Niederschläge Wind Luftdruck Luftfeuchtigkeit
00:00 +13°C° 1.5 mm 1 m/S 698 mmHg 96%
01:00 +13°C° 1.5 mm 1 m/S 698 mmHg 97%
02:00 +12°C° 2.2 mm 1 m/S 698 mmHg 98%
03:00 +12°C° 2.2 mm 1 m/S 698 mmHg 98%
04:00 +12°C° 2.2 mm 1 m/S 698 mmHg 98%
05:00 +13°C° 0.2 mm 1 m/S 698 mmHg 97%
06:00 +13°C° 0.2 mm 1 m/S 698 mmHg 96%
07:00 +14°C° 0.2 mm 1 m/S 698 mmHg 95%
08:00 +14°C° 0.4 mm 1 m/S 698 mmHg 95%
09:00 +15°C° 0.4 mm 1 m/S 698 mmHg 95%
10:00 +15°C° 0.4 mm 1 m/S 698 mmHg 95%
11:00 +16°C° 0.6 mm 2 m/S 698 mmHg 90%
12:00 +17°C° 0.6 mm 2 m/S 698 mmHg 85%
13:00 +18°C° 0.6 mm 2 m/S 698 mmHg 81%
14:00 +18°C° 0.7 mm 2 m/S 698 mmHg 83%
15:00 +18°C° 0.7 mm 2 m/S 698 mmHg 85%
16:00 +17°C° 0.7 mm 2 m/S 698 mmHg 87%
17:00 +17°C° 0.5 mm 2 m/S 698 mmHg 89%
18:00 +16°C° 0.5 mm 1 m/S 698 mmHg 92%
19:00 +15°C° 0.5 mm 1 m/S 698 mmHg 95%
20:00 +14°C° 0.1 mm 1 m/S 698 mmHg 95%
21:00 +13°C° 0.1 mm 1 m/S 699 mmHg 95%
22:00 +12°C° 0.1 mm 1 m/S 699 mmHg 95%
23:00 +12°C° 0 mm 1 m/S 699 mmHg 95%

19 Juli, Sonntag

Zeit Temperatur Niederschläge Wind Luftdruck Luftfeuchtigkeit
00:00 +11°C° 0 mm 1 m/S 698 mmHg 95%
01:00 +11°C° 0 mm 1 m/S 698 mmHg 95%
02:00 +11°C° 0 mm 1 m/S 698 mmHg 95%
03:00 +11°C° 0 mm 1 m/S 698 mmHg 95%
04:00 +10°C° 0 mm 1 m/S 698 mmHg 95%
05:00 +12°C° 0 mm 1 m/S 698 mmHg 92%
06:00 +14°C° 0 mm 1 m/S 698 mmHg 90%
07:00 +15°C° 0 mm 1 m/S 698 mmHg 88%
08:00 +18°C° 0 mm 1 m/S 699 mmHg 76%
09:00 +21°C° 0 mm 1 m/S 699 mmHg 64%
10:00 +23°C° 0 mm 1 m/S 699 mmHg 51%
11:00 +24°C° 0 mm 1 m/S 699 mmHg 50%
12:00 +24°C° 0 mm 2 m/S 699 mmHg 48%
13:00 +24°C° 0 mm 2 m/S 698 mmHg 47%
14:00 +24°C° 0 mm 2 m/S 698 mmHg 48%
15:00 +24°C° 0 mm 2 m/S 698 mmHg 49%
16:00 +24°C° 0 mm 2 m/S 698 mmHg 50%
17:00 +23°C° 0 mm 2 m/S 698 mmHg 60%
18:00 +22°C° 0 mm 1 m/S 698 mmHg 69%
19:00 +20°C° 0 mm 1 m/S 698 mmHg 79%
20:00 +18°C° 0 mm 1 m/S 698 mmHg 83%
21:00 +16°C° 0 mm 1 m/S 698 mmHg 88%
22:00 +14°C° 0 mm 1 m/S 698 mmHg 92%
23:00 +14°C° 0 mm 1 m/S 698 mmHg 92%

20 Juli, Montag

Zeit Temperatur Niederschläge Wind Luftdruck Luftfeuchtigkeit
00:00 +13°C° 0 mm 1 m/S 698 mmHg 93%
01:00 +13°C° 0 mm 1 m/S 698 mmHg 93%
02:00 +13°C° 0 mm 1 m/S 698 mmHg 93%
03:00 +13°C° 0 mm 1 m/S 698 mmHg 92%
04:00 +13°C° 0 mm 1 m/S 698 mmHg 92%
05:00 +15°C° 0 mm 1 m/S 698 mmHg 87%
06:00 +18°C° 0 mm 1 m/S 699 mmHg 82%
07:00 +19°C° 0 mm 1 m/S 699 mmHg 77%
08:00 +21°C° 0 mm 1 m/S 699 mmHg 67%
09:00 +24°C° 0 mm 1 m/S 699 mmHg 58%
10:00 +26°C° 0 mm 1 m/S 700 mmHg 49%
11:00 +26°C° 0 mm 1 m/S 700 mmHg 48%
12:00 +27°C° 0 mm 1 m/S 699 mmHg 47%
13:00 +27°C° 0 mm 1 m/S 699 mmHg 45%
14:00 +26°C° 0.4 mm 2 m/S 699 mmHg 56%
15:00 +25°C° 0.4 mm 2 m/S 699 mmHg 67%
16:00 +23°C° 0.4 mm 2 m/S 699 mmHg 77%
17:00 +21°C° 0.7 mm 2 m/S 699 mmHg 83%
18:00 +21°C° 0.7 mm 1 m/S 699 mmHg 88%
19:00 +20°C° 0.7 mm 1 m/S 699 mmHg 94%
20:00 +19°C° 0.1 mm 1 m/S 699 mmHg 95%
21:00 +18°C° 0.1 mm 1 m/S 700 mmHg 95%
22:00 +16°C° 0.1 mm 1 m/S 700 mmHg 96%
23:00 +15°C° 0 mm 1 m/S 700 mmHg 96%
Mehr zeigen